Home   Weather   Kuwait City   Past weeks
Flag for Kuwait

Past Weather in Kuwait City, Kuwait — Yesterday and Last 2 Weeks

Now
104 °F

Sunny.


Feels Like: 101 °F
Forecast: 113 / 91 °F
Wind: 22 mph from North

Location: Kuwait International Airport

Current Time: Jul 20, 2019 at 10:57:42 am

Latest Report: Jul 20, 2019 at 10:00 am


Visibility: 10 mi

Pressure: 29.56 "Hg

Humidity: 16%

Dew Point: 50 °F

Location of Kuwait CityLocation

Past Weather in Kuwait City — Graph

°F

Kuwait City Temperature Yesterday

Maximum temperature yesterday: 113 °F (at 2:00 pm)
Minimum temperature yesterday: 95 °F (at 5:00 am)
Average temperature yesterday: 104 °F

High & Low Weather Summary for the Past Weeks

 TemperatureHumidityPressure
High120 °F (Jul 7, 1:00 pm)27% (Jul 18, 5:00 am)29.56 "Hg (Jul 18, 5:00 am)
Low84 °F (Jul 6, 4:00 am)6% (Jul 6, 2:00 pm)29.30 "Hg (Jul 10, 4:00 pm)
Average104 °F13%29.46 "Hg
* Reported Jul 5 9:00 am — Jul 20 9:00 am, Kuwait City. Weather by CustomWeather, © 2019

Note: Actual official high and low records may vary slightly from our data, if they occured in-between our weather recording intervals... More about our weather records

Advertising

Kuwait City Weather History for the Previous 24 Hours

Scroll right to see more
 ConditionsComfort  
Time TempWeatherWind HumidityBarometerVisibility
9:00 am
Sat, Jul 20
100 °FSunny.20 mph21%29.56 "Hg10 mi
8:00 am97 °FSunny.18 mph22%29.56 "Hg10 mi
7:00 am95 °FSunny.21 mph23%29.53 "Hg10 mi
6:00 am93 °FSunny.20 mph26%29.53 "Hg10 mi
5:00 am93 °FClear.21 mph24%29.50 "Hg10 mi
4:00 am95 °FClear.21 mph22%29.50 "Hg10 mi
3:00 am95 °FClear.18 mph22%29.50 "Hg10 mi
2:00 am97 °FClear.20 mph19%29.50 "Hg10 mi
1:00 am99 °FClear.18 mph18%29.50 "Hg10 mi
12:00 am99 °FClear.15 mph19%29.50 "Hg10 mi
11:00 pm
Fri, Jul 19
100 °FClear.16 mph17%29.50 "Hg10 mi
10:00 pm102 °FClear.15 mph14%29.53 "Hg10 mi
9:00 pm104 °FClear.15 mph13%29.50 "Hg10 mi
8:00 pm106 °FClear.16 mph13%29.50 "Hg10 mi
7:00 pm108 °FClear.21 mph10%29.47 "Hg10 mi
6:00 pm109 °FClear.22 mph10%29.47 "Hg5 mi
5:00 pm111 °FLow level haze.25 mph10%29.45 "Hg2 mi
4:00 pm111 °FLow level haze.24 mph11%29.45 "Hg1 mi
3:00 pm113 °FClear.26 mph11%29.45 "Hg1 mi
2:00 pm113 °FSunny.28 mph12%29.47 "Hg1 mi
1:00 pm111 °FLow level haze.24 mph13%29.47 "Hg1 mi
12:00 pm111 °FLow level haze.26 mph12%29.50 "Hg1 mi
11:00 am109 °FLow level haze.23 mph14%29.50 "Hg1 mi
10:00 am108 °FLow level haze.23 mph15%29.50 "Hg3 mi
Weather by CustomWeather, © 2019

See weather overview